Wind_Speed
9 9 8 6 6 6 6 6 5 4 4 5 5 4 4 4 5 6 5 7 6 6 7 7 9 9 9 11 11 11 14 14 11 10 7 5 4 3 1 1 2 3 3 3 4 3 2 1 4 5 5 6 5 4 3 2 2 2 3 3 3 4 4 4 4 4 4 4 4 5 5 6 6 7 7 8 8 8 9 9 9 10 10 10 10
8 10 9 7 6 6 6 6 5 5 4 4 5 5 6 5 6 9 8 8 8 8 10 6 8 10 8 10 12 12 11 11 12 9 5 5 5 3 1 1 2 3 4 4 4 4 2 1 4 4 4 5 4 3 3 2 1 1 1 2 2 2 2 3 3 3 3 2 2 3 3 4 5 5 6 6 7 7 7 8 8 9 9 9 10
9 9 8 7 7 6 6 7 7 7 6 6 7 7 7 7 7 10 10 9 8 9 11 8 7 10 9 9 12 13 9 8 12 8 5 5 5 3 2 2 2 4 4 5 5 4 4 4 5 5 4 4 3 3 3 2 1 1 1 1 2 2 2 2 2 2 2 2 1 1 2 2 3 3 4 5 5 6 6 7 7 8 8 9 9
10 10 9 9 9 8 8 9 10 10 10 9 9 9 8 8 8 10 10 9 9 9 10 9 7 8 8 9 10 11 11 9 11 8 7 7 5 4 3 3 3 5 5 5 6 6 6 6 7 7 7 6 6 5 5 4 3 2 2 2 2 2 3 3 3 2 1 1 1 1 1 1 1 2 2 3 4 4 5 6 7 7 8 8 8
9 10 12 11 10 11 11 12 12 11 12 12 10 9 9 9 9 10 10 9 9 10 10 9 9 8 8 10 9 8 9 9 9 8 9 9 7 5 4 4 4 6 6 6 7 7 7 8 8 8 8 7 7 8 8 7 6 5 5 5 5 5 5 5 5 4 2 1 1 1 1 0 0 0 1 1 2 3 4 4 5 6 7 7 8
9 10 12 11 11 13 14 13 13 12 12 12 10 9 9 10 10 10 10 9 9 10 10 10 11 12 9 7 7 7 7 8 10 9 8 9 8 6 5 5 5 6 7 7 7 8 8 8 8 9 9 8 8 9 9 9 8 7 7 7 7 7 7 6 6 6 4 2 1 1 1 1 1 1 1 1 1 2 2 3 3 4 5 5 6
10 12 11 10 12 13 12 12 12 11 12 12 11 10 11 11 10 10 10 9 9 10 10 9 10 11 7 2 6 6 6 9 11 10 9 9 9 8 7 6 6 6 7 7 7 8 8 8 7 8 8 8 8 8 9 8 8 8 8 8 9 8 8 8 8 7 7 5 4 3 2 2 2 2 2 2 2 2 2 2 2 3 4 4 5
9 11 11 11 12 11 9 10 10 10 11 12 11 11 12 12 10 10 10 9 8 8 8 8 8 6 4 1 6 4 5 9 9 9 9 8 7 7 7 6 6 6 5 5 6 6 7 7 6 6 6 6 6 6 6 5 5 5 5 6 7 7 7 7 8 8 8 8 7 6 6 4 3 3 3 2 2 2 1 2 2 3 3 4 4
4 6 10 11 10 10 9 10 10 9 10 11 11 12 12 12 11 10 9 9 8 7 7 6 7 3 2 3 6 5 6 7 7 7 7 6 5 5 5 4 5 6 4 4 5 5 5 5 4 4 5 5 5 5 4 3 3 3 4 4 3 4 5 5 6 7 7 8 9 9 9 8 7 6 5 4 4 3 3 3 3 3 3 4 4
2 3 8 9 8 9 10 10 10 10 10 10 11 12 10 10 11 10 9 10 9 7 6 7 6 4 2 6 7 6 7 6 7 8 6 6 4 4 4 4 4 4 4 4 4 4 4 4 3 2 3 4 3 4 3 3 2 2 3 3 3 4 4 4 4 5 5 6 7 8 9 9 8 8 7 6 6 6 6 5 5 5 4 5 5
4 3 6 6 8 9 9 9 9 9 10 10 10 10 9 9 9 9 9 10 8 6 7 8 6 4 6 9 9 7 6 6 7 7 6 5 4 3 3 3 3 2 3 4 3 3 2 2 2 1 2 2 2 2 2 2 2 3 3 3 3 3 4 4 5 5 6 6 7 7 7 7 7 7 7 7 7 7 8 7 7 6 6 6 5
4 4 4 5 7 8 8 8 8 9 10 10 10 10 10 9 9 8 8 8 7 5 6 8 6 6 7 9 8 7 6 5 5 5 4 4 4 4 4 3 3 3 3 4 2 2 3 2 1 1 1 1 0 1 2 2 3 3 4 4 4 4 4 4 4 5 5 6 7 7 6 6 6 6 6 6 7 8 9 9 8 7 7 6 6
3 4 4 4 5 6 8 8 8 9 10 10 9 10 10 9 9 8 8 8 7 6 7 7 6 9 9 8 6 6 6 5 5 5 4 4 4 3 2 1 2 2 3 4 3 4 3 3 2 1 1 1 1 1 2 3 3 4 5 5 6 5 5 5 5 5 5 6 6 6 6 6 6 7 7 6 6 7 8 8 9 8 8 6 6
3 2 3 3 3 4 7 7 8 9 10 10 10 10 9 9 9 8 7 8 8 7 8 7 7 9 9 7 6 6 6 7 8 8 6 6 7 7 6 5 5 5 3 2 2 3 2 2 2 2 2 1 1 1 1 0 1 3 4 5 6 6 6 6 7 6 6 6 6 6 6 6 6 6 7 7 7 7 8 9 9 9 9 8 7
3 1 2 3 3 4 5 6 7 7 7 8 9 9 8 7 8 8 7 7 8 8 8 7 7 8 8 7 6 6 7 8 9 8 6 5 7 7 7 8 9 9 7 5 4 4 4 5 5 5 4 4 3 1 1 3 3 2 1 2 3 3 5 6 6 6 6 6 6 6 7 7 7 7 7 7 7 8 8 9 9 9 9 9 8
4 1 1 3 3 3 3 4 4 4 5 5 6 6 5 6 7 7 6 8 9 8 7 7 6 7 8 8 7 6 5 7 9 7 4 5 7 8 8 9 10 10 8 8 7 7 7 8 7 6 4 3 2 1 2 4 4 2 2 3 3 2 2 3 4 5 6 6 6 7 7 7 8 8 8 8 8 8 8 8 9 9 9 9 9
6 3 2 2 2 2 2 2 4 4 3 2 3 3 4 6 6 6 7 9 10 8 8 7 6 7 7 8 8 6 6 8 9 6 5 7 9 9 10 10 12 12 12 11 10 8 7 7 7 6 4 3 1 1 3 5 4 3 3 3 3 3 3 3 2 3 4 5 5 6 7 8 9 9 9 9 8 8 8 8 8 10 10 9 8
7 5 5 4 3 4 3 1 2 4 4 3 3 4 4 5 5 5 8 10 9 7 7 6 7 8 8 8 7 6 8 10 10 9 10 10 10 11 10 10 12 15 15 13 12 12 10 6 5 5 4 4 3 2 4 5 5 5 5 5 5 5 5 5 5 4 4 4 3 4 5 6 8 9 9 10 10 10 10 10 9 10 10 10 9
6 4 3 5 6 7 7 3 1 2 3 2 4 4 2 3 4 4 6 7 7 6 5 5 7 10 9 8 6 5 8 11 12 15 16 14 11 13 15 14 15 16 14 13 12 13 11 7 6 6 4 5 5 4 4 5 5 5 5 6 6 6 6 5 6 5 5 5 5 5 5 6 6 7 7 9 11 12 12 11 11 10 10 10 10
5 5 4 4 5 7 9 9 3 3 2 1 2 4 4 4 3 2 3 4 6 6 6 6 8 11 11 8 6 5 10 13 13 16 18 16 12 14 17 16 15 13 12 14 13 11 9 7 8 7 5 6 7 7 6 5 5 5 5 6 6 6 6 5 5 5 5 5 6 6 6 7 7 6 5 6 8 10 12 12 12 11 10 11 10
5 6 5 4 5 4 7 11 10 5 4 4 3 4 5 5 4 2 3 4 5 6 8 8 8 10 11 10 9 8 11 13 13 15 17 17 13 12 13 12 10 10 11 15 16 14 11 7 6 6 7 8 7 7 7 6 5 5 5 5 6 6 6 6 6 6 5 6 6 5 6 7 8 7 5 5 5 6 8 10 11 10 9 10 10
7 7 6 6 7 5 4 8 11 8 5 4 5 5 5 5 4 3 4 4 5 5 7 7 6 8 9 11 12 12 13 12 13 15 16 15 12 11 11 10 13 14 13 14 15 15 13 10 7 4 6 9 7 5 5 4 4 3 3 4 4 4 5 5 6 6 6 6 6 5 5 6 6 6 5 5 6 7 5 5 7 7 7 8 10
5 7 7 5 7 7 6 7 8 8 5 4 4 3 5 5 5 5 4 4 5 5 6 5 6 7 7 7 10 11 13 13 14 17 16 14 12 14 13 12 15 15 13 12 12 11 11 10 7 2 2 6 6 4 3 3 3 2 3 3 3 4 4 4 5 5 5 6 6 6 6 4 4 4 4 5 6 7 7 6 6 6 5 5 6
2 5 6 6 6 7 8 8 7 8 8 7 6 3 4 5 5 6 4 5 6 7 8 8 7 7 7 7 8 10 11 12 15 17 16 14 14 16 16 14 14 13 12 12 11 11 10 8 7 3 2 4 6 6 5 4 4 4 4 4 4 4 4 5 5 5 4 5 5 6 6 5 4 4 4 5 6 6 6 6 6 7 6 6 6
4 4 4 7 9 8 7 6 6 8 10 9 8 4 3 5 6 6 5 6 8 8 9 10 9 9 10 11 11 11 12 13 15 15 15 15 15 17 18 15 14 14 14 14 12 11 10 8 8 6 2 3 5 8 7 7 6 6 6 5 5 6 6 6 6 6 6 6 5 6 6 5 5 6 6 6 7 7 7 8 7 7 7 6 6
7 5 4 8 10 9 8 7 5 7 10 10 10 8 6 6 7 8 7 7 10 11 12 12 13 14 14 14 13 11 12 14 14 15 18 17 15 18 18 13 14 15 15 14 12 11 10 7 5 4 2 2 5 7 9 9 9 8 8 8 9 9 9 9 9 8 8 8 8 8 7 7 7 7 7 8 8 9 9 9 9 9 9 9 9
8 6 5 7 9 9 8 8 6 6 9 9 10 10 9 8 9 9 10 10 11 13 15 16 17 17 16 15 14 11 11 13 12 12 16 14 12 15 14 12 16 17 16 14 12 10 9 7 3 2 3 4 5 6 8 10 11 9 8 10 12 11 11 11 11 11 10 11 10 10 10 10 9 9 9 9 9 10 10 9 9 9 10 10 10
8 5 4 6 8 8 6 6 7 8 11 10 9 9 8 10 12 13 13 13 12 13 15 17 19 18 15 15 16 15 13 13 13 13 13 11 12 13 10 11 15 16 16 14 11 10 7 4 3 3 5 6 6 7 8 10 11 9 9 12 12 11 11 11 11 11 11 11 11 11 11 11 11 11 11 11 11 11 11 10 10 10 9 9 10
6 4 4 5 6 6 4 5 6 8 11 11 10 8 8 11 13 13 13 13 12 13 14 16 18 17 15 15 15 16 15 15 16 17 14 13 14 11 8 10 13 13 15 14 12 11 7 5 3 3 5 6 7 8 9 9 10 11 11 11 10 10 11 10 10 11 11 11 11 12 12 12 12 12 12 12 12 12 12 12 11 11 10 10 10
4 4 4 5 5 4 5 5 6 8 9 10 10 8 8 10 11 10 11 11 12 13 14 17 18 15 15 15 14 14 15 14 15 16 15 15 13 8 6 9 10 10 14 17 14 9 8 7 6 5 5 5 5 6 7 8 9 10 9 8 10 12 10 9 11 11 12 13 13 13 13 13 13 12 12 13 13 13 13 13 13 13 12 12 11
4 4 4 4 4 3 4 4 4 5 7 9 10 8 8 9 9 10 10 9 10 12 13 16 17 15 14 14 14 16 16 16 16 16 14 13 9 5 5 9 10 7 12 17 14 10 8 6 5 4 3 2 4 6 6 9 12 11 10 9 13 15 10 10 15 15 15 15 16 16 16 15 15 14 14 14 14 14 14 14 14 14 14 14 13
5 5 4 3 3 2 2 2 3 4 6 8 8 8 8 8 8 9 9 8 10 12 13 15 16 15 16 16 16 16 16 17 18 15 14 12 8 6 5 8 11 11 9 12 12 11 7 3 4 2 2 4 4 5 7 10 14 14 12 12 16 17 14 15 18 19 19 20 20 20 19 18 18 17 18 18 17 17 16 16 16 16 16 16 16
5 5 5 3 3 2 1 2 2 3 5 6 7 8 9 9 8 9 10 10 12 14 15 16 14 14 17 19 18 15 14 15 13 11 12 10 7 8 7 6 9 11 6 2 3 5 4 4 4 1 3 5 3 2 6 9 14 17 14 11 15 16 15 18 21 20 22 23 24 24 23 20 20 20 19 20 19 19 19 18 18 17 17 17 17
6 7 6 5 5 4 4 4 3 4 4 6 8 8 8 10 11 12 11 11 13 15 15 14 14 14 16 17 15 14 15 14 11 9 8 7 7 10 9 6 9 10 7 2 1 3 4 4 2 2 3 6 2 3 8 11 14 16 12 9 12 12 12 17 20 21 23 24 26 27 25 23 22 21 19 18 19 19 19 19 19 18 18 17 17
8 8 6 6 6 6 6 5 4 5 5 6 8 8 9 12 14 13 11 12 14 15 14 13 14 14 14 13 11 11 14 14 12 11 8 6 9 11 9 6 6 9 9 7 4 3 4 6 3 4 2 7 4 1 8 9 11 13 10 10 11 9 8 12 16 20 22 23 25 26 26 26 25 23 20 18 19 19 19 20 20 20 19 18 17
9 9 7 6 7 7 7 6 5 6 6 6 6 7 9 13 14 12 12 13 15 15 12 12 13 12 11 11 9 9 12 12 12 12 9 7 5 2 3 2 1 5 7 6 6 5 4 4 3 4 1 8 5 4 6 5 9 13 8 7 7 5 5 7 10 15 19 21 23 24 24 27 28 26 24 23 24 23 22 21 20 20 20 19 19
9 9 8 8 8 8 8 7 7 6 6 6 6 6 8 12 13 12 12 13 14 13 11 9 10 9 8 7 7 7 9 8 8 9 9 7 4 2 2 1 2 5 7 6 6 5 4 3 2 2 2 4 2 4 4 5 12 13 5 3 8 11 12 13 13 15 16 19 21 22 24 27 28 29 28 27 28 28 26 24 23 21 21 21 20
11 10 9 8 9 9 8 8 8 7 6 6 7 7 8 10 11 11 11 13 14 13 11 9 9 8 7 6 6 6 7 7 6 7 7 7 6 6 5 2 2 3 4 5 4 2 3 3 1 2 4 3 3 4 3 5 9 8 2 6 11 14 16 17 19 20 17 17 18 19 21 24 27 29 29 29 30 29 26 25 25 25 25 24 21
11 11 10 9 9 9 8 8 9 8 7 7 8 9 9 10 10 11 11 13 14 13 12 11 9 9 7 6 5 5 5 6 7 6 6 6 7 7 6 5 3 2 3 4 3 2 3 2 0 1 3 4 5 4 2 4 4 4 7 11 15 18 18 19 24 25 19 15 15 16 17 20 24 28 30 31 30 28 25 24 25 27 28 27 24
10 10 10 10 10 10 9 8 9 9 8 9 10 10 10 11 11 12 11 12 12 12 12 11 10 10 9 9 7 6 6 8 9 7 6 6 7 7 8 9 7 5 5 4 3 3 4 3 2 2 4 5 5 3 2 6 8 10 14 17 19 21 20 22 28 26 19 15 17 19 19 21 25 28 31 32 29 25 23 23 25 26 26 27 28
9 9 9 9 10 10 10 9 9 10 10 10 10 11 11 12 13 13 13 12 12 12 13 12 11 10 10 12 11 10 10 10 10 8 7 8 8 8 9 11 12 11 9 6 5 4 5 4 4 6 4 3 4 4 5 7 9 10 14 17 19 21 23 27 30 25 17 17 22 25 25 26 29 32 32 30 27 23 21 21 23 24 25 27 29
11 12 12 11 11 11 11 10 9 10 11 11 12 13 13 14 15 16 15 15 15 14 15 13 13 13 14 15 14 13 12 12 10 9 9 9 9 9 9 11 14 14 11 9 7 7 8 7 6 8 7 3 5 7 10 13 13 14 16 17 19 22 25 30 31 26 20 21 25 29 31 31 31 31 29 27 23 19 17 19 20 22 25 27 28
14 15 14 13 13 14 13 12 12 14 16 15 15 15 16 17 17 18 18 18 17 16 16 16 16 18 18 17 15 15 14 14 12 10 10 11 11 11 11 14 16 14 11 10 9 9 10 10 7 9 11 9 8 9 12 16 17 16 18 19 21 24 27 29 30 28 26 25 28 32 34 32 29 27 26 24 21 17 16 19 21 22 24 24 26
15 16 16 15 15 17 18 18 19 21 22 22 21 19 19 19 20 20 20 20 19 18 18 19 19 21 21 18 18 18 16 15 13 12 13 15 16 15 14 16 18 18 15 13 13 12 12 11 8 9 12 12 13 13 15 16 17 18 19 22 24 27 28 28 28 29 29 28 29 31 31 30 27 25 24 23 22 20 20 21 22 22 23 24 26
13 15 17 18 19 20 20 21 23 23 21 22 24 23 21 22 24 24 24 23 22 22 22 23 24 24 22 19 19 18 16 15 15 15 17 19 19 18 16 16 18 19 18 16 16 15 14 13 12 12 13 15 16 18 18 19 20 22 23 25 27 28 29 28 28 29 29 27 26 27 28 27 25 24 24 23 22 23 23 23 23 22 23 24 26
12 14 16 19 21 23 23 23 25 25 23 22 23 23 23 25 27 27 27 26 25 25 25 25 25 24 22 20 21 20 18 18 17 17 18 19 19 17 15 15 17 18 18 18 17 17 17 17 16 17 18 19 19 20 20 21 23 25 26 28 29 29 29 27 27 28 27 24 23 25 27 26 22 21 23 23 24 24 24 24 24 24 23 23 23
11 13 15 17 19 21 23 24 26 27 26 24 24 24 24 26 28 28 28 28 28 28 28 25 22 21 20 17 17 19 18 17 16 16 15 15 16 16 14 14 16 18 18 18 18 18 18 19 19 19 20 21 21 21 21 23 24 26 27 28 28 28 27 27 28 27 25 22 19 21 25 24 21 23 24 24 25 25 25 26 26 23 20 20 20
10 12 14 15 17 18 19 21 24 26 25 24 25 27 26 27 29 30 31 31 30 31 31 27 23 22 21 17 15 15 14 13 14 14 14 16 17 17 16 16 18 19 19 18 19 18 17 18 19 19 20 20 20 21 22 24 25 26 26 26 26 26 26 27 28 25 21 18 15 17 23 24 22 23 23 23 24 25 26 25 22 20 18 20 21
10 12 13 14 15 16 17 19 20 22 23 23 24 27 29 30 31 32 32 32 31 32 32 29 25 24 24 20 17 14 12 14 16 15 16 18 17 15 14 16 18 19 18 18 18 17 17 18 18 19 19 20 21 22 23 24 24 25 25 25 24 24 24 25 24 21 19 18 16 17 20 21 20 20 22 25 26 27 26 21 16 17 19 21 21
12 12 14 15 16 16 17 17 18 21 22 22 22 24 27 30 32 33 33 32 31 31 30 28 25 24 23 21 19 18 17 18 19 18 16 16 15 15 15 16 18 18 18 16 16 15 16 18 18 19 20 20 21 22 22 23 23 23 23 22 21 21 22 21 19 18 18 17 15 16 19 21 22 23 24 27 27 25 23 20 19 21 21 21 22
13 14 15 16 16 18 19 20 19 20 21 21 20 23 25 27 29 31 32 31 30 28 26 25 24 23 22 20 20 21 21 20 21 20 17 15 16 16 14 14 15 15 14 13 13 14 16 17 17 17 18 20 20 20 20 20 19 18 18 18 19 19 18 16 16 17 18 17 17 20 22 23 25 26 25 25 27 27 25 24 24 25 25 26 26
Wind_Direction
198 202 214 216 215 220 216 202 195 204 213 225 242 252 236 230 214 202 183 168 172 197 209 223 220 204 212 214 197 192 194 189 204 219 217 228 230 218 234 42 52 55 37 11 5 1 333 180 158 154 149 158 164 167 168 152 133 100 84 77 74 77 76 78 80 78 74 69 66 65 66 66 66 64 62 60 56 55 53 52 50 48 47 44 43
201 204 211 209 212 222 221 217 220 219 214 223 242 254 233 230 217 200 197 183 173 193 191 194 224 202 194 211 198 203 208 178 186 211 206 202 207 207 199 86 62 59 59 49 37 27 16 89 146 145 141 157 162 165 172 158 137 85 54 45 46 56 53 58 63 64 64 66 66 64 66 65 66 66 65 65 62 58 55 53 51 48 45 41 39
209 213 212 210 213 222 227 231 242 236 228 229 234 246 235 224 212 201 204 194 180 190 181 173 223 215 194 206 204 203 209 173 168 180 186 191 200 197 164 108 70 64 72 81 79 75 74 85 108 112 114 124 112 112 123 116 108 64 33 14 2 -0 11 23 28 35 40 41 49 54 62 62 60 61 59 60 58 56 54 50 49 48 44 39 36
219 222 216 218 221 224 232 233 237 237 231 225 221 228 228 221 213 204 202 192 183 183 181 178 200 227 220 210 210 204 204 183 161 175 207 205 194 179 149 115 95 87 86 90 92 92 93 95 97 94 93 95 90 92 98 92 84 76 62 35 16 8 11 17 16 13 8 10 5 -0 21 47 46 48 44 45 44 44 44 42 41 40 39 38 35
225 222 213 215 225 226 228 227 227 230 224 216 213 216 217 216 211 208 205 191 185 179 183 190 189 211 223 211 206 200 200 182 158 175 203 197 182 171 152 125 109 99 95 89 87 88 91 96 96 91 90 95 95 93 93 89 83 80 75 66 60 56 47 40 32 24 14 341 285 271 277 298 339 26 26 23 26 28 29 30 29 30 30 31 31
231 225 215 211 219 220 221 224 223 222 216 208 206 206 208 213 210 209 209 196 190 186 191 200 191 195 215 213 188 185 192 162 149 157 168 175 171 168 156 128 113 104 99 92 90 90 89 90 89 88 86 89 97 99 99 96 90 82 77 74 71 67 60 50 41 35 31 22 353 286 275 284 287 301 332 353 357 358 5 10 11 14 19 22 25
235 227 221 222 224 220 221 227 222 216 210 205 204 200 200 209 211 210 213 204 196 194 199 201 191 203 238 209 140 164 184 148 146 155 153 161 168 166 157 140 131 115 100 95 96 96 96 96 92 90 85 84 95 102 102 100 93 86 81 76 70 63 59 52 48 44 42 44 41 28 355 322 305 309 326 348 351 341 338 344 346 347 354 3 12
236 226 216 224 229 221 219 219 217 213 206 205 206 201 199 205 207 207 209 207 205 200 204 209 203 223 292 146 139 147 166 139 138 155 151 151 162 162 159 158 149 129 116 113 111 106 103 103 99 98 94 87 90 96 97 92 82 75 66 64 60 52 52 52 48 47 47 47 45 42 34 21 4 353 348 351 352 353 339 330 334 331 332 337 347
236 226 212 219 228 216 208 210 211 211 208 206 206 203 203 207 206 204 202 204 210 201 197 213 219 246 3 166 178 161 157 142 129 145 147 137 144 160 165 164 149 138 142 139 127 121 111 103 95 91 91 83 79 81 82 72 55 40 25 25 29 28 32 35 34 39 45 45 42 39 36 33 29 23 15 8 1 359 354 343 335 326 323 323 328
161 204 209 208 212 204 202 207 204 204 210 205 201 204 206 208 207 203 200 206 214 210 209 221 228 239 215 200 202 179 166 158 137 137 141 140 142 166 170 156 146 142 150 154 141 128 117 114 114 102 87 75 66 69 68 58 41 29 15 -0 359 4 1 354 352 -0 10 18 23 25 28 30 31 29 21 13 9 5 359 353 345 335 330 325 322
141 171 204 188 184 193 194 194 194 194 201 203 203 208 206 201 205 208 207 211 224 234 221 218 216 196 196 210 207 191 181 171 153 143 146 158 164 187 194 181 191 192 172 164 143 126 133 128 123 122 105 95 78 57 38 25 5 352 349 340 341 346 344 340 333 327 326 333 343 352 4 14 21 25 21 17 18 17 13 5 357 346 336 330 324
151 167 194 179 174 193 191 184 195 195 191 199 203 205 205 203 205 214 215 211 223 238 213 206 200 154 167 206 194 172 179 172 159 150 155 179 194 219 241 250 229 205 194 196 196 211 239 267 289 267 194 151 199 290 301 302 303 305 311 314 316 321 321 324 327 324 318 317 324 329 336 345 353 -0 4 10 17 21 21 12 3 352 340 333 323
150 161 177 177 172 199 203 190 197 198 193 196 198 199 204 209 209 207 211 210 215 229 212 199 188 155 160 206 191 155 169 162 134 120 126 151 161 180 201 174 151 148 201 217 222 228 240 265 270 250 231 230 264 286 288 280 283 285 290 294 295 301 304 304 303 304 305 303 304 309 316 321 325 328 328 337 350 358 -0 356 354 350 341 332 320
135 140 154 170 169 188 205 201 198 198 197 198 199 199 200 206 208 200 198 209 214 219 215 204 195 168 160 195 189 153 148 143 128 120 126 137 131 130 135 142 128 111 135 163 172 195 189 180 167 136 135 121 102 83 72 347 306 292 288 286 279 281 287 291 292 291 289 288 289 290 294 299 303 307 306 307 315 321 326 328 333 339 336 329 320
109 117 141 148 148 156 181 199 203 200 196 198 201 200 202 201 199 197 191 200 211 214 213 208 203 183 164 175 181 156 141 138 134 131 134 128 120 123 127 135 130 117 116 117 125 133 113 118 126 122 124 105 91 103 71 48 44 25 341 320 294 279 274 276 284 286 281 279 282 281 282 285 287 290 290 289 295 299 305 310 313 322 326 323 320
120 99 174 153 156 147 148 167 180 188 185 190 200 200 206 203 198 202 191 192 210 216 212 210 211 198 176 172 175 169 157 149 146 143 131 111 107 105 108 117 122 119 118 114 110 112 107 107 107 105 113 102 88 69 29 37 49 51 30 14 -0 348 309 285 281 278 276 276 280 282 281 283 282 281 278 278 284 286 289 296 299 302 306 310 316
128 143 184 161 165 144 114 131 151 156 152 152 183 178 180 195 203 207 196 200 214 211 199 198 204 203 185 174 172 175 185 170 154 142 121 114 105 96 100 107 106 101 98 94 89 88 90 94 101 104 106 107 115 72 40 46 66 60 32 27 25 22 18 6 345 312 298 288 286 287 284 283 280 276 273 270 271 273 275 278 281 285 288 295 305
141 173 181 150 135 133 126 123 132 138 149 157 151 142 157 177 178 183 193 204 212 203 190 188 194 193 185 183 185 190 192 177 153 129 112 109 103 98 100 97 97 96 93 94 92 86 85 84 95 109 119 129 127 90 64 62 66 62 54 56 57 53 49 41 36 28 11 351 333 323 312 301 288 282 279 271 266 266 270 273 274 276 278 287 298
145 157 157 140 137 139 143 149 28 61 109 157 152 136 141 166 163 162 174 191 205 204 191 191 200 199 190 185 190 188 180 172 154 134 120 113 110 115 120 116 113 112 115 128 127 113 115 120 110 109 127 135 128 114 97 86 76 73 73 71 68 65 59 52 45 35 28 27 22 16 5 350 331 312 300 285 274 270 269 272 272 269 266 272 283
137 124 115 118 130 141 144 144 119 41 55 236 185 160 158 164 185 188 152 174 195 195 190 187 195 205 203 192 190 171 166 168 157 143 131 127 128 128 131 131 127 120 123 134 132 121 124 128 124 127 124 112 114 116 107 96 87 81 81 80 77 75 70 64 56 45 42 41 34 29 24 17 12 4 347 316 294 279 270 269 272 268 261 260 264
145 131 130 121 117 132 149 146 138 140 197 220 177 159 168 175 196 201 177 184 184 181 185 179 175 194 198 188 189 180 171 169 160 153 142 135 138 138 133 131 125 116 115 124 126 122 117 107 114 131 118 103 102 107 103 95 92 87 88 86 80 78 73 66 60 55 52 46 41 39 34 33 35 34 27 6 344 314 286 273 271 266 259 256 254
159 144 148 147 135 133 145 148 145 150 180 188 158 158 163 161 158 153 167 178 173 172 178 177 172 183 187 180 183 186 183 175 162 161 154 144 144 142 136 127 118 114 111 117 122 124 124 115 108 117 116 110 101 99 102 100 93 88 81 73 64 61 57 52 48 43 39 31 29 27 21 28 38 42 38 28 24 14 355 317 291 283 272 263 256
176 158 155 152 149 143 125 123 135 136 128 113 114 140 149 139 119 117 132 146 152 165 163 158 162 164 166 169 178 186 186 177 169 168 162 153 145 135 132 126 117 117 119 118 113 112 121 125 124 120 98 107 104 95 96 99 95 88 70 52 43 43 38 40 36 29 24 16 11 8 3 4 11 20 19 10 12 14 17 15 351 344 343 312 290
170 180 164 141 127 124 123 124 129 127 118 107 98 107 146 143 118 111 116 118 122 141 146 139 138 139 137 138 148 166 172 167 168 169 162 154 150 141 136 129 122 126 132 128 116 107 107 107 106 86 25 65 89 91 89 88 87 82 71 56 47 48 40 37 36 29 23 12 3 357 354 351 340 339 341 335 340 345 352 358 354 358 4 355 346
184 217 165 134 124 123 132 131 127 129 126 119 108 89 105 137 132 118 111 112 115 129 140 134 122 117 118 110 108 125 140 149 160 164 158 156 157 147 138 134 133 138 139 133 124 118 114 108 109 112 76 10 56 79 79 73 77 74 67 62 56 51 45 39 37 32 27 20 13 6 356 349 339 330 326 322 324 326 327 327 325 326 330 332 334
203 212 153 145 145 147 147 129 127 141 137 130 118 100 92 114 129 124 117 114 114 118 123 123 116 113 111 104 100 103 109 122 138 148 148 152 162 153 140 138 145 146 144 139 131 124 121 127 143 144 136 14 24 62 72 63 66 70 62 58 54 47 41 37 34 31 27 23 18 15 9 2 354 346 339 335 333 331 329 325 321 316 312 308 306
223 221 181 166 153 149 150 139 135 132 127 129 129 128 129 121 115 114 111 107 113 120 122 122 117 112 109 111 116 116 106 109 121 140 142 139 149 150 141 150 161 155 145 138 133 127 125 132 139 353 31 65 41 47 63 54 51 59 59 53 46 39 35 33 32 29 26 23 20 16 14 9 4 359 354 350 347 343 340 335 330 326 319 312 305
241 236 195 174 161 158 158 141 128 120 122 129 134 143 148 129 114 111 108 108 115 122 126 128 123 118 121 128 130 132 132 131 132 141 145 133 130 133 133 154 160 149 137 130 126 126 127 131 125 15 21 64 62 45 50 43 32 28 39 44 36 29 29 28 27 25 22 20 18 15 12 10 7 3 360 357 355 351 348 346 342 337 332 325 317
247 220 186 167 167 166 144 127 128 131 136 142 143 143 147 139 132 128 126 125 124 122 124 125 120 118 124 130 134 138 145 149 141 136 138 133 129 128 130 146 153 151 144 132 126 130 124 102 99 42 22 43 57 54 49 38 20 12 26 38 30 22 22 23 23 20 16 15 13 10 8 5 2 -0 358 355 353 352 349 347 344 342 338 333 328
227 199 177 157 160 148 130 130 129 132 139 144 143 144 152 152 146 140 137 139 135 129 127 125 121 122 127 130 135 139 143 149 143 136 136 136 137 136 122 129 142 162 161 143 129 135 141 126 106 71 45 35 39 47 43 37 28 12 12 27 25 18 17 22 22 17 15 13 9 6 1 358 357 354 352 349 346 345 342 341 340 338 337 334 330
207 184 164 163 160 145 145 142 132 135 140 141 143 152 159 151 141 139 141 144 139 132 134 135 131 131 133 129 122 117 120 127 128 127 129 130 139 149 126 120 109 114 157 153 134 134 158 163 150 120 91 55 18 9 5 20 24 8 358 11 15 9 3 9 11 9 12 11 6 3 358 353 351 348 347 343 340 338 335 333 332 331 331 329 327
200 171 162 175 166 170 186 154 145 148 138 137 144 146 140 136 141 143 137 131 130 127 128 129 125 123 123 117 110 108 114 122 124 128 132 130 134 136 125 118 95 83 127 152 138 140 156 145 138 140 72 73 50 9 347 0 11 8 3 4 4 1 356 355 356 358 1 1 358 358 356 352 349 346 344 342 338 336 332 329 326 323 323 321 321
184 158 159 165 159 164 126 116 139 151 150 150 144 134 132 141 143 133 123 125 129 125 119 118 120 126 127 121 117 114 112 113 112 117 121 111 96 94 88 99 100 85 80 98 115 138 152 127 130 129 54 82 107 298 323 347 5 13 12 358 355 358 349 342 346 350 350 349 349 349 350 351 349 344 339 337 335 334 331 328 324 321 318 316 315
167 153 165 168 157 148 131 138 143 133 148 150 138 140 151 151 135 123 126 136 135 128 126 130 132 135 137 134 130 126 119 112 109 113 107 82 92 109 102 102 118 109 90 64 94 118 118 110 125 186 85 69 110 268 328 349 6 14 15 2 359 4 348 335 338 339 339 341 342 341 342 345 347 345 339 334 332 330 328 326 325 323 320 318 316
156 155 183 179 161 158 152 160 154 134 141 146 148 165 172 153 136 134 150 155 145 140 142 146 143 142 147 148 142 137 133 127 130 141 136 112 128 144 141 132 144 142 124 107 115 129 103 69 65 164 109 28 50 32 340 348 4 3 2 6 10 18 4 342 334 333 334 334 333 332 334 337 340 341 341 339 336 334 330 328 326 326 324 322 320
158 163 195 183 165 172 170 169 165 154 158 162 166 180 176 159 149 154 167 166 156 150 151 154 155 157 160 157 152 147 148 146 148 161 154 114 106 146 149 116 121 163 157 132 112 120 110 73 93 154 32 4 16 16 348 332 342 344 344 355 347 312 300 312 320 328 326 322 325 329 330 331 332 335 339 340 340 338 333 329 329 328 326 325 326
167 174 197 183 174 187 185 179 177 174 178 176 168 176 178 170 167 172 174 170 163 154 153 165 174 176 174 173 171 163 169 171 160 167 164 127 97 80 90 30 48 132 163 162 135 132 134 106 117 207 322 350 317 328 335 312 328 341 345 297 290 281 283 291 310 325 321 320 327 329 327 326 326 329 333 335 336 336 334 330 330 329 326 327 329
180 184 194 184 186 198 192 186 190 196 201 187 170 178 189 184 185 188 184 179 172 164 166 177 184 185 180 185 193 187 189 186 167 177 182 162 152 150 146 154 139 140 151 135 126 164 173 130 103 270 293 318 290 296 310 315 337 1 10 253 269 282 291 303 323 333 329 325 325 324 325 323 319 320 325 328 330 331 330 328 329 329 327 328 330
196 195 195 188 194 205 200 197 203 209 215 204 190 194 199 195 196 197 196 192 186 184 190 190 194 198 182 176 202 205 193 184 183 204 215 198 189 188 189 182 171 222 205 146 139 187 180 164 104 284 294 308 318 325 295 274 290 291 274 276 284 293 299 314 329 334 333 327 316 314 317 310 306 312 318 323 325 326 326 326 327 326 324 325 327
208 207 206 198 199 205 204 209 215 216 217 213 210 216 217 214 214 210 210 210 203 206 214 209 214 220 194 175 193 207 204 206 214 227 233 224 222 224 222 211 198 212 213 193 208 213 198 211 251 283 280 283 304 325 258 262 275 278 284 294 299 300 305 315 323 329 331 319 306 307 307 301 303 310 315 319 323 325 323 320 319 320 320 322 325
210 211 214 210 212 212 207 213 221 223 224 219 218 226 227 229 235 231 228 231 227 226 230 220 217 224 207 195 210 223 220 219 225 231 232 240 252 256 240 224 215 219 221 211 207 220 229 236 267 283 277 270 285 285 277 288 296 290 289 294 295 297 303 308 314 323 322 306 304 308 308 307 309 313 316 318 321 322 320 318 318 320 319 319 320
210 217 215 212 219 221 214 215 222 226 228 224 223 228 228 229 238 242 240 240 237 234 238 230 213 209 208 209 217 225 222 222 226 229 233 245 259 259 244 230 227 232 236 229 216 222 234 234 251 263 257 271 292 283 281 283 282 282 284 285 286 293 299 303 309 316 310 302 306 308 309 312 314 315 316 318 321 326 326 321 317 314 313 314 315
211 218 215 211 216 222 218 215 217 220 218 214 217 227 229 227 232 238 240 242 240 234 233 229 212 207 212 216 217 221 228 235 236 234 242 252 259 258 244 233 234 241 250 250 240 236 238 235 242 252 251 260 268 263 265 268 270 274 278 281 286 293 299 302 306 308 307 307 309 309 311 314 317 318 319 322 326 327 319 311 308 308 310 312 312
220 224 226 225 222 223 222 217 218 222 219 211 211 220 228 231 234 238 241 243 241 234 229 226 221 219 220 219 217 222 232 242 241 244 257 259 255 253 244 233 236 244 254 260 257 253 249 241 237 243 248 253 255 252 255 262 269 274 277 282 289 295 299 302 303 304 307 311 311 311 312 315 319 324 326 327 324 320 314 310 310 312 312 311 309
239 243 247 245 237 231 231 228 226 229 230 221 217 220 225 230 236 242 246 247 246 244 239 232 228 225 221 220 225 230 237 244 246 253 262 256 246 245 244 237 240 248 256 262 262 258 253 243 235 239 247 253 259 263 266 271 279 284 286 289 293 297 301 303 303 304 308 313 316 315 314 319 326 326 322 319 316 312 311 309 310 311 309 306 305
249 250 251 249 244 239 239 239 235 235 237 233 229 230 231 231 235 241 246 247 248 249 244 234 231 231 229 232 239 242 245 251 256 259 257 247 237 237 242 242 246 252 257 259 259 255 251 245 240 245 255 261 266 272 277 282 287 291 293 295 297 300 302 303 303 305 310 317 321 318 314 318 322 315 308 308 306 304 303 303 305 308 307 307 310
250 248 247 248 249 248 246 246 246 246 246 241 240 244 242 236 236 239 243 245 245 246 243 238 239 245 246 240 236 239 244 247 249 246 237 229 226 224 226 234 244 249 251 251 251 252 251 249 246 249 258 266 271 277 282 286 290 292 294 296 299 301 302 303 305 309 314 318 319 310 304 304 304 300 300 300 299 299 301 304 309 314 316 315 315
254 251 250 250 251 253 252 252 253 255 254 248 248 251 249 243 241 242 244 245 245 246 247 247 250 254 255 249 239 239 238 228 224 222 211 208 214 215 215 224 235 240 243 246 249 252 254 252 251 254 259 266 272 278 284 288 290 292 294 297 299 301 303 304 306 308 309 307 301 293 291 295 298 298 298 296 296 298 301 307 318 325 320 311 307
272 262 262 263 262 261 257 254 255 258 258 254 253 255 252 248 247 247 247 247 247 245 248 252 253 249 246 245 248 248 230 208 206 210 210 212 215 216 218 223 230 237 242 245 248 249 249 249 250 255 261 267 274 281 286 290 292 294 297 298 300 302 304 306 306 304 301 301 300 293 292 295 296 295 294 293 295 299 304 307 308 305 303 302 301
277 270 268 269 270 270 268 263 261 260 261 259 255 251 249 248 248 249 249 250 249 246 247 251 251 245 240 241 246 245 230 208 198 200 210 217 219 221 224 226 231 239 243 246 249 247 246 249 254 259 266 272 278 284 289 292 295 297 298 299 302 304 307 310 309 305 305 311 308 296 291 291 290 292 296 299 300 301 301 298 292 289 290 292 291
273 274 273 270 269 270 269 268 268 266 266 265 258 251 249 248 246 246 248 249 248 246 245 247 245 241 239 238 235 231 223 206 193 196 208 216 218 221 223 224 232 242 245 246 246 245 247 253 259 265 273 280 284 288 293 298 301 303 304 306 308 310 316 321 318 311 311 313 304 295 294 294 292 292 295 301 303 301 297 297 298 296 292 291 294
Height
1540 1541 1542 1543 1544 1545 1545 1545 1545 1544 1544 1545 1545 1545 1545 1546 1547 1548 1549 1548 1549 1550 1551 1552 1553 1554 1554 1554 1555 1555 1554 1556 1556 1557 1559 1559 1559 1559 1558 1559 1559 1559 1559 1559 1559 1559 1560 1559 1560 1560 1561 1561 1562 1562 1562 1563 1563 1564 1564 1565 1565 1565 1566 1566 1566 1567 1567 1567 1567 1568 1568 1568 1568 1568 1568 1568 1568 1568 1568 1568 1568 1568 1568 1567 1567
1540 1541 1542 1543 1544 1544 1545 1545 1545 1545 1545 1545 1545 1545 1545 1546 1547 1547 1547 1547 1548 1549 1549 1551 1552 1553 1554 1554 1554 1553 1552 1555 1557 1557 1559 1560 1559 1559 1559 1559 1559 1560 1560 1559 1560 1560 1560 1560 1560 1561 1561 1562 1562 1562 1563 1563 1564 1564 1564 1565 1565 1566 1566 1566 1567 1567 1567 1567 1568 1568 1568 1568 1569 1569 1569 1569 1569 1569 1569 1569 1569 1569 1568 1568 1568
1539 1540 1542 1543 1544 1544 1545 1545 1545 1545 1545 1545 1545 1545 1545 1545 1546 1546 1546 1547 1547 1548 1549 1550 1552 1553 1553 1554 1554 1553 1551 1554 1556 1558 1560 1560 1560 1559 1559 1560 1560 1561 1560 1560 1560 1560 1560 1560 1561 1561 1562 1562 1563 1563 1563 1563 1564 1564 1564 1565 1565 1566 1566 1566 1567 1567 1567 1567 1568 1568 1568 1569 1569 1569 1569 1569 1569 1569 1569 1570 1569 1569 1569 1569 1569
1539 1540 1542 1543 1543 1544 1544 1544 1544 1544 1544 1545 1545 1544 1544 1544 1545 1545 1546 1547 1547 1547 1548 1549 1551 1553 1554 1553 1553 1554 1552 1552 1556 1558 1560 1560 1560 1560 1560 1561 1561 1561 1561 1561 1561 1561 1561 1561 1561 1562 1562 1563 1563 1563 1564 1564 1564 1564 1565 1565 1565 1566 1566 1566 1567 1567 1567 1567 1567 1568 1568 1568 1569 1569 1569 1569 1570 1570 1570 1570 1570 1570 1570 1570 1569
1539 1540 1541 1543 1543 1543 1543 1543 1543 1543 1543 1544 1544 1543 1543 1543 1544 1545 1545 1546 1546 1547 1548 1549 1550 1552 1554 1553 1553 1553 1552 1552 1557 1558 1558 1559 1560 1561 1561 1561 1561 1561 1562 1562 1562 1561 1562 1562 1562 1563 1563 1563 1564 1564 1564 1564 1565 1565 1565 1565 1566 1566 1566 1566 1567 1567 1567 1567 1567 1567 1568 1568 1568 1569 1569 1569 1570 1570 1570 1570 1570 1570 1570 1570 1570
1538 1539 1540 1542 1542 1542 1542 1542 1542 1542 1542 1543 1543 1542 1542 1542 1543 1544 1545 1546 1547 1547 1548 1549 1550 1552 1553 1552 1552 1553 1552 1553 1557 1558 1558 1559 1560 1561 1561 1561 1562 1562 1562 1562 1562 1562 1563 1563 1563 1564 1564 1564 1565 1565 1565 1565 1565 1566 1566 1566 1566 1566 1566 1567 1567 1567 1567 1567 1567 1567 1567 1568 1568 1568 1569 1569 1570 1570 1570 1570 1570 1570 1570 1570 1570
1538 1539 1539 1540 1539 1540 1541 1541 1541 1542 1542 1542 1542 1541 1541 1542 1543 1544 1545 1546 1547 1548 1549 1550 1552 1553 1554 1553 1554 1555 1554 1554 1557 1558 1558 1559 1559 1560 1561 1561 1561 1562 1562 1563 1563 1563 1563 1563 1564 1564 1565 1565 1565 1566 1566 1566 1566 1566 1567 1567 1567 1567 1567 1567 1567 1567 1567 1567 1567 1567 1568 1568 1568 1569 1569 1569 1570 1570 1570 1570 1570 1570 1570 1570 1570
1537 1537 1538 1538 1537 1538 1539 1540 1540 1541 1541 1541 1541 1541 1541 1542 1543 1545 1546 1546 1547 1548 1550 1552 1554 1555 1557 1557 1556 1556 1556 1555 1557 1559 1559 1559 1560 1560 1561 1561 1562 1562 1563 1563 1564 1563 1563 1564 1564 1565 1565 1565 1566 1566 1566 1567 1567 1567 1567 1568 1568 1568 1568 1568 1568 1567 1567 1567 1567 1568 1568 1568 1568 1569 1569 1569 1569 1570 1570 1570 1570 1570 1570 1570 1570
1536 1536 1537 1537 1536 1538 1539 1539 1539 1539 1540 1540 1540 1541 1541 1542 1543 1545 1546 1546 1547 1548 1550 1553 1555 1555 1558 1559 1557 1557 1557 1556 1558 1559 1560 1560 1560 1560 1561 1561 1562 1563 1563 1563 1564 1564 1564 1564 1564 1565 1565 1566 1566 1567 1567 1567 1568 1568 1568 1568 1568 1569 1568 1568 1568 1568 1568 1568 1568 1568 1568 1568 1569 1569 1569 1569 1569 1570 1570 1570 1570 1571 1571 1571 1571
1537 1536 1536 1536 1536 1537 1538 1538 1538 1538 1539 1539 1540 1540 1541 1542 1543 1544 1545 1546 1547 1548 1549 1552 1554 1555 1558 1558 1557 1557 1557 1557 1559 1559 1560 1560 1560 1560 1561 1562 1562 1563 1563 1564 1565 1564 1564 1564 1565 1565 1566 1566 1567 1567 1567 1568 1568 1568 1568 1568 1569 1569 1569 1569 1569 1569 1569 1569 1569 1569 1569 1569 1569 1570 1570 1570 1570 1570 1570 1570 1570 1570 1571 1571 1571
1537 1536 1535 1536 1536 1536 1537 1537 1537 1538 1538 1538 1539 1540 1541 1542 1543 1544 1545 1546 1547 1548 1549 1552 1553 1555 1558 1558 1558 1557 1556 1557 1559 1559 1560 1560 1560 1560 1560 1562 1562 1563 1564 1564 1565 1565 1565 1565 1565 1566 1566 1567 1567 1567 1568 1568 1568 1568 1568 1568 1568 1569 1569 1569 1569 1569 1569 1569 1569 1569 1569 1569 1569 1570 1570 1570 1570 1570 1570 1570 1570 1570 1570 1570 1571
1536 1536 1535 1536 1536 1535 1536 1537 1537 1537 1538 1538 1539 1540 1541 1542 1543 1544 1544 1546 1547 1548 1549 1551 1552 1555 1558 1557 1557 1557 1557 1557 1558 1559 1560 1559 1560 1560 1560 1561 1562 1563 1564 1564 1565 1564 1564 1565 1565 1566 1566 1566 1567 1567 1567 1568 1568 1568 1568 1568 1568 1568 1568 1569 1569 1569 1569 1569 1569 1569 1569 1570 1570 1570 1569 1569 1569 1569 1570 1570 1569 1569 1569 1570 1570
1536 1536 1535 1535 1536 1536 1536 1536 1537 1537 1538 1538 1539 1539 1540 1542 1543 1544 1545 1546 1547 1548 1549 1550 1551 1555 1558 1556 1556 1556 1556 1557 1557 1558 1559 1559 1559 1560 1561 1562 1562 1563 1564 1564 1564 1564 1564 1564 1565 1565 1566 1566 1566 1567 1567 1567 1567 1567 1567 1568 1568 1568 1568 1568 1568 1568 1569 1569 1569 1569 1569 1569 1569 1569 1569 1569 1569 1569 1569 1569 1569 1569 1569 1569 1569
1537 1536 1536 1535 1536 1536 1535 1536 1537 1537 1537 1538 1538 1539 1540 1541 1542 1543 1545 1545 1546 1547 1548 1549 1551 1554 1556 1554 1554 1555 1556 1556 1557 1558 1558 1558 1558 1559 1561 1562 1562 1563 1563 1564 1564 1563 1563 1564 1565 1565 1565 1565 1566 1566 1566 1567 1567 1567 1567 1567 1567 1567 1567 1567 1567 1568 1568 1568 1568 1569 1569 1569 1569 1569 1569 1569 1569 1569 1569 1569 1569 1569 1568 1568 1568
1538 1537 1536 1536 1535 1535 1536 1536 1536 1537 1537 1537 1537 1538 1539 1540 1541 1543 1544 1545 1545 1547 1547 1549 1550 1552 1553 1553 1553 1554 1555 1556 1557 1558 1558 1558 1559 1559 1561 1562 1563 1563 1563 1564 1564 1564 1564 1564 1565 1565 1565 1565 1565 1566 1566 1566 1567 1566 1566 1566 1566 1566 1566 1566 1566 1567 1567 1567 1567 1568 1568 1568 1568 1568 1568 1568 1568 1568 1568 1568 1568 1568 1568 1568 1568
1540 1539 1538 1537 1536 1536 1536 1536 1536 1536 1536 1536 1537 1537 1538 1539 1541 1542 1543 1544 1545 1546 1547 1548 1549 1551 1552 1552 1553 1554 1555 1556 1557 1558 1558 1559 1560 1560 1561 1563 1563 1564 1564 1564 1565 1565 1564 1565 1565 1565 1565 1565 1565 1566 1566 1566 1566 1566 1566 1566 1565 1565 1565 1565 1565 1566 1566 1566 1566 1567 1567 1567 1567 1567 1567 1567 1567 1567 1567 1567 1567 1567 1567 1567 1567
1542 1541 1539 1538 1537 1536 1536 1536 1535 1535 1535 1535 1536 1537 1538 1539 1540 1542 1543 1544 1544 1545 1547 1548 1549 1550 1551 1551 1553 1553 1554 1556 1557 1558 1559 1560 1561 1561 1563 1564 1564 1564 1565 1564 1564 1565 1565 1565 1566 1566 1566 1566 1566 1566 1567 1567 1566 1566 1566 1566 1565 1565 1565 1565 1565 1565 1565 1566 1566 1566 1566 1566 1566 1566 1566 1566 1566 1566 1566 1566 1566 1566 1566 1566 1566
1542 1541 1540 1539 1538 1537 1536 1536 1536 1535 1535 1536 1536 1537 1538 1539 1541 1542 1543 1544 1544 1544 1545 1546 1547 1548 1550 1551 1552 1552 1553 1555 1557 1558 1560 1561 1562 1563 1564 1564 1564 1565 1565 1565 1565 1565 1566 1566 1566 1566 1566 1566 1566 1567 1567 1567 1567 1566 1566 1566 1566 1565 1565 1565 1565 1565 1565 1565 1565 1565 1565 1565 1564 1564 1565 1565 1565 1565 1565 1565 1565 1565 1565 1565 1566
1541 1541 1540 1539 1538 1537 1537 1536 1536 1535 1535 1535 1536 1537 1538 1539 1540 1541 1543 1544 1543 1543 1544 1544 1545 1547 1550 1551 1552 1552 1553 1554 1556 1557 1558 1561 1563 1564 1565 1566 1566 1566 1567 1567 1567 1567 1567 1567 1566 1566 1566 1567 1567 1567 1567 1567 1567 1567 1567 1566 1566 1566 1566 1566 1566 1566 1565 1565 1565 1565 1565 1564 1564 1564 1564 1564 1564 1564 1564 1564 1564 1564 1565 1565 1565
1541 1541 1540 1539 1538 1538 1537 1536 1536 1536 1535 1535 1536 1537 1538 1539 1540 1541 1542 1543 1543 1543 1544 1544 1545 1547 1549 1550 1552 1553 1553 1554 1555 1556 1557 1559 1562 1563 1565 1566 1566 1567 1567 1568 1568 1569 1568 1568 1567 1567 1567 1567 1567 1568 1568 1567 1567 1567 1567 1567 1567 1567 1566 1566 1566 1566 1565 1565 1565 1565 1565 1564 1564 1563 1563 1563 1562 1562 1562 1562 1563 1563 1563 1564 1564
1539 1540 1540 1539 1538 1537 1536 1536 1536 1536 1536 1536 1536 1537 1539 1539 1540 1541 1542 1542 1543 1543 1544 1545 1546 1547 1549 1550 1551 1552 1552 1553 1555 1557 1557 1559 1561 1563 1564 1566 1566 1567 1568 1568 1569 1569 1569 1568 1568 1568 1568 1568 1568 1568 1568 1568 1568 1568 1568 1568 1567 1567 1567 1566 1566 1566 1565 1565 1565 1564 1564 1564 1564 1563 1563 1562 1562 1562 1561 1561 1561 1561 1562 1562 1563
1538 1539 1539 1538 1538 1537 1536 1535 1535 1535 1535 1536 1536 1537 1538 1539 1540 1541 1541 1542 1543 1543 1544 1545 1545 1547 1548 1548 1549 1550 1551 1553 1554 1556 1558 1559 1561 1563 1564 1565 1566 1568 1569 1569 1569 1570 1570 1570 1568 1568 1569 1569 1569 1568 1569 1569 1568 1568 1568 1568 1568 1567 1567 1567 1566 1566 1566 1565 1565 1564 1564 1564 1564 1564 1563 1562 1562 1562 1561 1561 1560 1560 1561 1561 1561
1537 1538 1538 1537 1536 1536 1535 1535 1535 1535 1535 1536 1536 1537 1538 1539 1540 1541 1541 1542 1543 1543 1544 1544 1545 1546 1547 1548 1549 1550 1551 1552 1554 1555 1557 1559 1560 1562 1564 1565 1566 1568 1569 1570 1570 1570 1570 1570 1570 1569 1569 1569 1569 1569 1569 1569 1569 1568 1568 1568 1568 1567 1567 1567 1566 1566 1566 1565 1565 1565 1564 1564 1564 1564 1563 1563 1562 1562 1562 1561 1560 1560 1560 1560 1560
1536 1536 1536 1536 1535 1535 1535 1534 1534 1535 1535 1536 1537 1537 1537 1538 1539 1540 1540 1541 1542 1543 1544 1544 1545 1546 1547 1548 1549 1550 1551 1552 1554 1555 1557 1558 1560 1561 1563 1565 1566 1568 1569 1570 1571 1571 1571 1571 1571 1570 1569 1568 1569 1569 1569 1569 1569 1568 1568 1568 1568 1567 1567 1566 1566 1566 1565 1565 1565 1564 1564 1564 1564 1564 1563 1563 1562 1562 1561 1561 1560 1560 1560 1559 1559
1536 1536 1536 1535 1534 1534 1534 1534 1534 1534 1535 1536 1537 1537 1537 1538 1539 1540 1540 1541 1542 1543 1544 1545 1546 1547 1548 1549 1550 1551 1552 1552 1553 1555 1557 1558 1559 1561 1562 1564 1566 1568 1569 1570 1571 1572 1572 1572 1571 1571 1570 1568 1568 1569 1569 1569 1569 1568 1568 1568 1568 1567 1567 1566 1566 1566 1565 1565 1565 1564 1564 1564 1563 1563 1563 1563 1562 1562 1561 1561 1560 1560 1559 1559 1559
1535 1535 1535 1534 1533 1533 1533 1533 1533 1534 1535 1536 1537 1537 1538 1538 1539 1540 1540 1541 1542 1543 1544 1546 1547 1548 1549 1550 1551 1552 1553 1553 1554 1555 1556 1557 1559 1560 1562 1563 1565 1566 1568 1570 1571 1571 1572 1572 1571 1571 1570 1569 1568 1568 1569 1569 1569 1569 1568 1568 1568 1567 1567 1566 1566 1566 1565 1565 1565 1564 1564 1564 1563 1563 1562 1562 1562 1561 1561 1560 1560 1559 1559 1559 1559
1534 1534 1533 1533 1532 1532 1531 1532 1532 1533 1535 1536 1537 1537 1538 1539 1540 1541 1542 1542 1543 1544 1545 1546 1548 1549 1550 1551 1552 1553 1553 1553 1554 1556 1556 1557 1559 1560 1561 1562 1564 1565 1567 1569 1570 1570 1571 1571 1571 1570 1570 1569 1568 1568 1568 1569 1569 1569 1569 1568 1567 1567 1567 1566 1566 1566 1565 1565 1565 1564 1564 1564 1563 1563 1562 1562 1561 1561 1560 1560 1559 1559 1558 1558 1558
1533 1533 1533 1532 1531 1531 1531 1531 1531 1533 1534 1536 1537 1537 1538 1539 1540 1541 1542 1543 1544 1544 1545 1547 1548 1549 1550 1551 1552 1553 1553 1554 1555 1556 1557 1558 1559 1560 1561 1562 1563 1564 1566 1567 1568 1570 1570 1570 1570 1569 1569 1569 1569 1568 1568 1568 1568 1568 1568 1567 1567 1567 1567 1566 1566 1566 1565 1565 1565 1564 1564 1564 1563 1563 1562 1561 1561 1560 1560 1559 1559 1558 1558 1557 1557
1533 1532 1532 1531 1530 1530 1530 1531 1531 1532 1534 1535 1536 1537 1538 1539 1540 1541 1542 1543 1544 1545 1546 1547 1548 1549 1550 1551 1551 1552 1553 1554 1555 1555 1557 1558 1559 1560 1561 1562 1562 1563 1564 1566 1567 1569 1570 1569 1569 1569 1569 1569 1569 1569 1569 1569 1568 1568 1567 1567 1568 1567 1567 1566 1566 1566 1565 1565 1565 1564 1564 1564 1563 1563 1562 1561 1561 1560 1560 1559 1559 1558 1557 1557 1556
1532 1532 1531 1530 1530 1530 1530 1531 1531 1532 1533 1535 1536 1537 1538 1539 1539 1541 1542 1543 1544 1545 1546 1547 1548 1549 1550 1550 1551 1552 1553 1554 1555 1556 1557 1558 1559 1560 1560 1561 1561 1562 1562 1564 1566 1568 1569 1569 1569 1569 1569 1569 1569 1569 1569 1569 1569 1568 1568 1568 1568 1567 1566 1566 1566 1566 1565 1565 1564 1564 1564 1563 1563 1562 1562 1561 1561 1560 1560 1559 1558 1557 1557 1556 1556
1531 1531 1531 1530 1530 1530 1531 1531 1532 1532 1533 1534 1536 1537 1537 1539 1540 1541 1541 1542 1543 1544 1545 1546 1548 1549 1550 1550 1552 1553 1554 1555 1556 1558 1559 1560 1560 1560 1560 1561 1561 1561 1562 1562 1564 1567 1568 1568 1568 1569 1569 1569 1569 1569 1569 1569 1569 1568 1568 1567 1567 1566 1566 1566 1565 1565 1565 1564 1564 1563 1563 1562 1562 1561 1561 1561 1560 1560 1559 1558 1557 1557 1556 1555 1555
1531 1531 1531 1530 1531 1531 1531 1531 1532 1533 1533 1534 1536 1536 1538 1539 1540 1541 1541 1542 1543 1544 1545 1547 1548 1549 1550 1551 1553 1554 1555 1556 1557 1558 1559 1560 1560 1560 1561 1561 1561 1562 1562 1562 1564 1566 1567 1568 1568 1569 1569 1569 1569 1569 1568 1568 1569 1568 1567 1566 1566 1566 1565 1564 1564 1564 1563 1563 1562 1562 1562 1561 1560 1560 1559 1559 1559 1558 1558 1557 1556 1556 1555 1554 1553
1530 1530 1531 1530 1531 1531 1531 1532 1532 1533 1534 1535 1536 1537 1538 1539 1540 1541 1542 1543 1544 1544 1546 1547 1548 1549 1550 1551 1553 1554 1555 1556 1558 1559 1560 1560 1561 1561 1561 1562 1562 1563 1563 1563 1564 1566 1567 1568 1568 1569 1569 1569 1569 1569 1569 1569 1569 1567 1566 1566 1566 1565 1564 1563 1563 1563 1562 1562 1561 1560 1560 1560 1559 1558 1558 1557 1556 1556 1555 1555 1555 1554 1553 1553 1552
1530 1530 1531 1531 1531 1532 1532 1533 1533 1533 1534 1535 1537 1538 1539 1540 1540 1542 1543 1543 1544 1545 1546 1548 1549 1550 1550 1551 1552 1554 1555 1556 1558 1559 1560 1561 1561 1561 1561 1562 1562 1563 1564 1564 1565 1565 1567 1567 1567 1568 1569 1569 1569 1569 1568 1568 1568 1567 1567 1567 1566 1566 1565 1564 1563 1562 1562 1561 1560 1559 1559 1558 1558 1557 1556 1556 1555 1554 1553 1553 1552 1552 1551 1551 1550
1530 1530 1531 1531 1531 1532 1533 1534 1534 1534 1535 1536 1537 1538 1539 1540 1541 1542 1543 1544 1545 1546 1547 1548 1549 1550 1550 1552 1553 1554 1555 1556 1557 1559 1560 1560 1561 1561 1561 1562 1563 1564 1565 1565 1565 1565 1566 1567 1567 1567 1568 1568 1569 1568 1568 1567 1567 1567 1567 1567 1567 1567 1567 1566 1564 1563 1562 1561 1560 1559 1558 1557 1557 1556 1555 1555 1554 1553 1552 1551 1550 1550 1549 1548 1548
1530 1530 1531 1531 1532 1533 1533 1534 1535 1535 1536 1536 1538 1539 1540 1541 1542 1543 1543 1544 1545 1546 1547 1548 1549 1550 1551 1552 1553 1554 1555 1556 1557 1559 1560 1560 1561 1561 1562 1562 1563 1564 1564 1564 1565 1565 1566 1566 1567 1567 1567 1568 1567 1568 1567 1567 1567 1566 1566 1567 1567 1566 1566 1565 1564 1563 1562 1561 1559 1558 1557 1556 1555 1554 1553 1552 1552 1551 1550 1549 1548 1548 1547 1546 1545
1529 1530 1530 1531 1532 1533 1534 1535 1535 1536 1536 1537 1539 1540 1542 1543 1543 1544 1544 1545 1546 1547 1548 1549 1549 1550 1551 1552 1553 1554 1555 1556 1558 1559 1560 1560 1561 1562 1562 1562 1562 1563 1564 1564 1565 1565 1566 1566 1566 1567 1567 1568 1568 1568 1567 1567 1566 1566 1566 1566 1565 1564 1564 1564 1564 1563 1561 1560 1558 1557 1556 1555 1553 1552 1551 1550 1550 1549 1548 1547 1546 1546 1545 1544 1543
1529 1530 1530 1531 1533 1534 1535 1535 1536 1537 1537 1538 1540 1542 1543 1544 1545 1545 1546 1546 1547 1548 1548 1549 1549 1550 1551 1552 1553 1554 1555 1556 1557 1558 1559 1560 1561 1562 1563 1562 1562 1563 1564 1564 1564 1565 1565 1565 1566 1566 1566 1567 1567 1567 1567 1567 1566 1565 1564 1564 1563 1563 1562 1562 1562 1561 1560 1559 1558 1556 1555 1554 1552 1550 1550 1549 1548 1547 1546 1545 1544 1543 1542 1541 1541
1528 1530 1530 1532 1533 1535 1536 1537 1537 1538 1538 1539 1541 1543 1544 1545 1546 1546 1547 1547 1548 1548 1549 1549 1550 1550 1551 1552 1552 1553 1554 1555 1556 1557 1558 1560 1560 1561 1562 1562 1563 1563 1563 1564 1564 1564 1565 1565 1565 1565 1565 1565 1566 1566 1566 1565 1565 1564 1563 1562 1562 1562 1561 1560 1559 1558 1558 1557 1557 1556 1555 1553 1551 1550 1548 1547 1546 1545 1544 1543 1542 1541 1539 1538 1538
1528 1529 1531 1532 1534 1535 1537 1538 1539 1539 1540 1541 1543 1544 1545 1546 1547 1547 1547 1548 1548 1548 1549 1549 1550 1550 1551 1551 1551 1552 1552 1553 1554 1555 1557 1558 1559 1560 1561 1562 1562 1562 1562 1563 1564 1564 1564 1564 1565 1565 1565 1564 1564 1564 1564 1564 1563 1563 1562 1561 1561 1560 1559 1559 1558 1557 1556 1555 1554 1553 1553 1551 1549 1548 1547 1545 1544 1543 1542 1541 1540 1539 1537 1536 1535
1529 1530 1531 1532 1533 1535 1536 1538 1539 1541 1542 1543 1544 1545 1546 1547 1547 1547 1548 1548 1548 1548 1549 1549 1549 1549 1549 1549 1549 1550 1550 1550 1552 1554 1555 1557 1558 1559 1560 1560 1560 1560 1561 1562 1563 1563 1564 1564 1564 1564 1564 1564 1563 1563 1563 1562 1562 1561 1560 1560 1559 1558 1558 1557 1556 1556 1555 1553 1551 1550 1549 1548 1547 1545 1544 1542 1541 1541 1540 1539 1538 1537 1536 1534 1533
1528 1528 1529 1530 1532 1533 1535 1537 1540 1541 1542 1544 1545 1546 1547 1547 1547 1547 1547 1547 1547 1547 1547 1548 1548 1548 1547 1548 1549 1549 1549 1549 1551 1552 1554 1555 1556 1557 1558 1559 1559 1559 1560 1561 1562 1562 1563 1562 1562 1562 1562 1562 1562 1561 1561 1560 1560 1560 1559 1558 1558 1557 1556 1555 1553 1554 1553 1551 1549 1547 1546 1546 1544 1542 1541 1540 1539 1538 1538 1537 1536 1535 1534 1533 1532
1526 1526 1527 1529 1530 1532 1533 1535 1537 1538 1539 1541 1543 1544 1545 1546 1546 1546 1546 1546 1546 1546 1546 1546 1547 1546 1546 1547 1548 1548 1549 1549 1550 1551 1551 1553 1554 1556 1557 1558 1558 1558 1559 1560 1560 1561 1561 1561 1561 1561 1560 1560 1560 1559 1559 1558 1558 1559 1558 1557 1557 1555 1554 1553 1551 1551 1550 1549 1547 1544 1542 1542 1541 1539 1538 1537 1537 1537 1537 1536 1534 1533 1532 1531 1530
1525 1525 1526 1527 1528 1530 1532 1533 1534 1534 1535 1537 1539 1541 1543 1544 1545 1545 1545 1545 1545 1545 1545 1545 1545 1544 1544 1546 1546 1547 1547 1548 1549 1549 1550 1551 1552 1553 1555 1556 1557 1557 1558 1558 1559 1559 1560 1560 1560 1559 1559 1558 1558 1557 1558 1557 1557 1557 1557 1556 1555 1554 1553 1551 1549 1548 1548 1547 1545 1542 1540 1540 1539 1536 1535 1535 1535 1535 1534 1533 1532 1531 1530 1529 1528
1523 1524 1524 1525 1527 1528 1530 1532 1532 1533 1535 1536 1537 1539 1540 1542 1543 1543 1542 1543 1542 1543 1543 1542 1541 1541 1543 1545 1545 1545 1546 1547 1547 1548 1548 1548 1549 1550 1552 1554 1555 1556 1556 1557 1557 1557 1558 1558 1558 1557 1557 1557 1556 1556 1557 1556 1556 1555 1555 1554 1553 1551 1550 1549 1548 1546 1546 1545 1543 1539 1537 1537 1536 1534 1533 1534 1533 1533 1532 1531 1530 1529 1527 1526 1525
1522 1522 1523 1524 1526 1527 1529 1530 1531 1532 1534 1535 1536 1537 1538 1539 1539 1539 1540 1540 1540 1540 1539 1538 1537 1538 1541 1543 1543 1543 1544 1545 1545 1545 1545 1546 1546 1548 1550 1551 1553 1555 1555 1555 1555 1555 1556 1556 1556 1555 1555 1555 1555 1554 1555 1555 1554 1553 1552 1551 1550 1549 1548 1547 1545 1544 1543 1543 1541 1537 1534 1534 1535 1534 1533 1532 1531 1530 1529 1528 1527 1527 1525 1524 1524
1521 1521 1522 1523 1524 1525 1527 1528 1528 1529 1531 1533 1534 1534 1535 1536 1536 1537 1537 1537 1537 1536 1535 1534 1536 1537 1539 1540 1540 1540 1541 1542 1543 1543 1543 1543 1545 1546 1547 1549 1550 1552 1553 1553 1553 1553 1553 1554 1554 1554 1553 1554 1554 1553 1553 1553 1552 1551 1550 1549 1548 1546 1545 1543 1542 1542 1541 1541 1540 1537 1533 1533 1533 1532 1530 1530 1528 1527 1526 1525 1524 1524 1523 1522 1521
1520 1520 1521 1521 1522 1523 1524 1525 1525 1525 1527 1530 1530 1531 1531 1532 1533 1533 1533 1533 1533 1533 1531 1532 1535 1535 1535 1536 1536 1537 1538 1539 1540 1541 1541 1542 1543 1544 1545 1546 1547 1548 1549 1550 1551 1551 1552 1552 1552 1552 1552 1552 1552 1552 1551 1551 1550 1549 1547 1546 1546 1544 1543 1541 1540 1540 1539 1539 1539 1537 1533 1531 1531 1530 1527 1526 1525 1524 1523 1523 1522 1522 1521 1520 1519
1518 1518 1519 1519 1519 1520 1521 1522 1522 1522 1523 1525 1527 1527 1527 1528 1529 1529 1529 1529 1529 1529 1529 1531 1532 1532 1532 1532 1533 1533 1535 1536 1537 1539 1539 1540 1542 1542 1543 1544 1545 1546 1547 1548 1549 1549 1550 1550 1550 1550 1551 1551 1551 1550 1549 1548 1547 1546 1545 1544 1543 1542 1541 1539 1538 1538 1537 1536 1536 1534 1531 1529 1528 1527 1525 1523 1522 1521 1520 1520 1520 1519 1518 1517 1516
1517 1517 1517 1517 1517 1517 1517 1518 1519 1519 1520 1521 1523 1523 1524 1524 1524 1525 1525 1526 1525 1525 1526 1528 1528 1528 1529 1530 1530 1531 1532 1533 1534 1536 1537 1539 1540 1541 1541 1542 1542 1544 1545 1546 1547 1547 1547 1548 1548 1549 1549 1549 1549 1548 1547 1546 1545 1544 1543 1542 1542 1541 1540 1538 1537 1536 1535 1535 1533 1531 1529 1528 1526 1525 1522 1520 1519 1519 1518 1517 1517 1516 1515 1513 1512
1515 1516 1516 1516 1516 1515 1515 1515 1516 1516 1517 1518 1519 1520 1520 1520 1521 1521 1522 1522 1522 1522 1523 1525 1525 1525 1526 1527 1528 1529 1530 1532 1533 1534 1535 1537 1538 1539 1540 1540 1541 1543 1544 1545 1545 1545 1546 1547 1547 1547 1547 1547 1547 1546 1545 1544 1543 1542 1541 1541 1540 1539 1538 1537 1536 1534 1533 1533 1531 1529 1527 1525 1523 1522 1521 1518 1515 1514 1515 1514 1513 1512 1511 1509 1508